• In Kazakhstan
  • List of Countries
  • For 7 days
  • Water Temperature
  • Satellite Maps
  • Weather Map
  • News
  • Weather Widgets
  • user-avatar
    Login

    Hourly Weather Havana

    Today, 23 November, Thursday

    Time Temperature Precipitation Wind Pressure Humidity
    00:00 +24°C° 0.1 mm 2 mps 759 mmHg 92%
    01:00 +24°C° 0 mm 3 mps 759 mmHg 94%
    02:00 +24°C° 0 mm 2 mps 759 mmHg 95%
    03:00 +24°C° 0 mm 2 mps 759 mmHg 95%
    04:00 +23°C° 0 mm 2 mps 758 mmHg 95%
    05:00 +23°C° 0 mm 2 mps 758 mmHg 95%
    06:00 +23°C° 0 mm 2 mps 758 mmHg 95%
    07:00 +23°C° 0 mm 2 mps 759 mmHg 95%
    08:00 +25°C° 0 mm 2 mps 759 mmHg 87%
    09:00 +27°C° 0 mm 2 mps 759 mmHg 79%
    10:00 +28°C° 0 mm 2 mps 759 mmHg 72%
    11:00 +29°C° 0 mm 3 mps 759 mmHg 67%
    12:00 +30°C° 0 mm 3 mps 758 mmHg 63%
    13:00 +31°C° 0 mm 3 mps 758 mmHg 58%
    14:00 +31°C° 0 mm 3 mps 758 mmHg 60%
    15:00 +30°C° 0 mm 4 mps 757 mmHg 62%
    16:00 +30°C° 0 mm 4 mps 757 mmHg 64%
    17:00 +28°C° 0 mm 4 mps 757 mmHg 69%
    18:00 +27°C° 0 mm 3 mps 757 mmHg 74%
    19:00 +26°C° 0 mm 3 mps 758 mmHg 80%
    20:00 +26°C° 0 mm 3 mps 758 mmHg 81%
    21:00 +25°C° 0 mm 3 mps 758 mmHg 82%
    22:00 +25°C° 0 mm 3 mps 758 mmHg 84%
    23:00 +25°C° 0 mm 3 mps 758 mmHg 84%

    Tomorrow, 24 November, Friday

    Time Temperature Precipitation Wind Pressure Humidity
    00:00 +25°C° 0 mm 3 mps 758 mmHg 85%
    01:00 +24°C° 0 mm 3 mps 758 mmHg 86%
    02:00 +24°C° 0.1 mm 3 mps 758 mmHg 86%
    03:00 +24°C° 0.1 mm 3 mps 757 mmHg 87%
    04:00 +24°C° 0.1 mm 3 mps 757 mmHg 87%
    05:00 +24°C° 0 mm 3 mps 757 mmHg 88%
    06:00 +22°C° 0 mm 3 mps 758 mmHg 88%
    07:00 +22°C° 0 mm 3 mps 758 mmHg 89%
    08:00 +25°C° 0 mm 4 mps 758 mmHg 81%
    09:00 +27°C° 0 mm 4 mps 759 mmHg 74%
    10:00 +29°C° 0 mm 4 mps 759 mmHg 66%
    11:00 +29°C° 0 mm 4 mps 759 mmHg 63%
    12:00 +30°C° 0 mm 4 mps 759 mmHg 60%
    13:00 +32°C° 0 mm 4 mps 758 mmHg 57%
    14:00 +30°C° 0.1 mm 4 mps 758 mmHg 60%
    15:00 +29°C° 0.1 mm 4 mps 758 mmHg 63%
    16:00 +29°C° 0.1 mm 4 mps 757 mmHg 66%
    17:00 +28°C° 0 mm 4 mps 758 mmHg 70%
    18:00 +26°C° 0 mm 4 mps 758 mmHg 74%
    19:00 +25°C° 0 mm 3 mps 759 mmHg 79%
    20:00 +25°C° 0 mm 3 mps 759 mmHg 79%
    21:00 +25°C° 0 mm 3 mps 760 mmHg 79%
    22:00 +24°C° 0 mm 2 mps 760 mmHg 79%
    23:00 +24°C° 0 mm 2 mps 760 mmHg 80%

    Day after tomorrow, 25 November, Saturday

    Time Temperature Precipitation Wind Pressure Humidity
    00:00 +24°C° 0 mm 2 mps 760 mmHg 81%
    01:00 +24°C° 0 mm 2 mps 760 mmHg 82%
    02:00 +24°C° 0 mm 2 mps 760 mmHg 83%
    03:00 +24°C° 0 mm 2 mps 759 mmHg 84%
    04:00 +23°C° 0 mm 2 mps 759 mmHg 85%
    05:00 +23°C° 0 mm 2 mps 760 mmHg 85%
    06:00 +22°C° 0 mm 3 mps 760 mmHg 85%
    07:00 +22°C° 0 mm 3 mps 760 mmHg 85%
    08:00 +25°C° 0 mm 3 mps 760 mmHg 78%
    09:00 +27°C° 0 mm 3 mps 761 mmHg 70%
    10:00 +28°C° 0 mm 3 mps 761 mmHg 63%
    11:00 +28°C° 0 mm 3 mps 761 mmHg 62%
    12:00 +29°C° 0 mm 3 mps 761 mmHg 60%
    13:00 +29°C° 0 mm 3 mps 760 mmHg 59%
    14:00 +28°C° 0 mm 3 mps 760 mmHg 61%
    15:00 +28°C° 0 mm 3 mps 759 mmHg 62%
    16:00 +28°C° 0 mm 3 mps 759 mmHg 64%
    17:00 +27°C° 0 mm 3 mps 759 mmHg 68%
    18:00 +26°C° 0 mm 3 mps 760 mmHg 71%
    19:00 +24°C° 0 mm 3 mps 760 mmHg 75%
    20:00 +24°C° 0 mm 3 mps 761 mmHg 75%
    21:00 +24°C° 0 mm 3 mps 761 mmHg 75%
    22:00 +24°C° 0 mm 3 mps 761 mmHg 75%
    23:00 +24°C° 0 mm 3 mps 761 mmHg 76%

    26 November, Sunday

    Time Temperature Precipitation Wind Pressure Humidity
    00:00 +24°C° 0 mm 3 mps 761 mmHg 77%
    01:00 +24°C° 0 mm 3 mps 761 mmHg 78%
    02:00 +24°C° 0.1 mm 3 mps 761 mmHg 80%
    03:00 +22°C° 0.1 mm 4 mps 760 mmHg 82%
    04:00 +22°C° 0.1 mm 4 mps 760 mmHg 84%
    05:00 +22°C° 0.3 mm 3 mps 760 mmHg 83%
    06:00 +22°C° 0.3 mm 3 mps 761 mmHg 83%
    07:00 +22°C° 0.3 mm 3 mps 761 mmHg 82%
    08:00 +25°C° 0.4 mm 3 mps 761 mmHg 75%
    09:00 +26°C° 0.4 mm 3 mps 762 mmHg 68%
    10:00 +28°C° 0.4 mm 3 mps 762 mmHg 61%
    11:00 +28°C° 0.3 mm 3 mps 761 mmHg 60%
    12:00 +29°C° 0.3 mm 3 mps 761 mmHg 59%
    13:00 +29°C° 0.3 mm 3 mps 760 mmHg 58%
    14:00 +28°C° 0.3 mm 4 mps 760 mmHg 62%
    15:00 +28°C° 0.3 mm 4 mps 760 mmHg 66%
    16:00 +27°C° 0.3 mm 5 mps 759 mmHg 70%
    17:00 +26°C° 0.9 mm 5 mps 760 mmHg 75%
    18:00 +23°C° 0.9 mm 5 mps 760 mmHg 79%
    19:00 +22°C° 0.9 mm 5 mps 760 mmHg 84%
    20:00 +22°C° 0.3 mm 5 mps 761 mmHg 84%
    21:00 +22°C° 0.3 mm 5 mps 761 mmHg 84%
    22:00 +22°C° 0.3 mm 5 mps 761 mmHg 83%
    23:00 +22°C° 0.1 mm 4 mps 761 mmHg 82%

    27 November, Monday

    Time Temperature Precipitation Wind Pressure Humidity
    00:00 +22°C° 0.1 mm 4 mps 761 mmHg 81%
    01:00 +22°C° 0.1 mm 4 mps 760 mmHg 80%
    02:00 +22°C° 0 mm 4 mps 760 mmHg 79%
    03:00 +22°C° 0 mm 4 mps 760 mmHg 79%
    04:00 +22°C° 0 mm 4 mps 760 mmHg 78%
    05:00 +22°C° 0 mm 4 mps 760 mmHg 78%
    06:00 +22°C° 0 mm 4 mps 761 mmHg 79%
    07:00 +22°C° 0 mm 4 mps 761 mmHg 79%
    08:00 +23°C° 0.4 mm 5 mps 761 mmHg 75%
    09:00 +26°C° 0.4 mm 5 mps 762 mmHg 71%
    10:00 +28°C° 0.4 mm 6 mps 762 mmHg 67%
    11:00 +28°C° 0.5 mm 6 mps 761 mmHg 67%
    12:00 +28°C° 0.5 mm 6 mps 761 mmHg 67%
    13:00 +28°C° 0.5 mm 6 mps 760 mmHg 66%
    14:00 +28°C° 0.3 mm 6 mps 760 mmHg 68%
    15:00 +27°C° 0.3 mm 6 mps 760 mmHg 70%
    16:00 +27°C° 0.3 mm 7 mps 760 mmHg 72%
    17:00 +26°C° 0 mm 6 mps 760 mmHg 75%
    18:00 +24°C° 0 mm 6 mps 760 mmHg 79%
    19:00 +23°C° 0 mm 6 mps 761 mmHg 83%
    20:00 +23°C° 0.2 mm 6 mps 761 mmHg 84%
    21:00 +23°C° 0.2 mm 6 mps 761 mmHg 85%
    22:00 +23°C° 0.2 mm 6 mps 762 mmHg 86%
    23:00 +23°C° 0 mm 5 mps 761 mmHg 87%

    28 November, Tuesday

    Time Temperature Precipitation Wind Pressure Humidity
    00:00 +23°C° 0 mm 5 mps 761 mmHg 87%
    01:00 +22°C° 0 mm 5 mps 761 mmHg 88%
    02:00 +22°C° 0.1 mm 5 mps 761 mmHg 88%
    03:00 +22°C° 0.1 mm 5 mps 761 mmHg 88%
    04:00 +22°C° 0.1 mm 5 mps 761 mmHg 88%
    05:00 +22°C° 0.1 mm 5 mps 761 mmHg 88%
    06:00 +22°C° 0.1 mm 5 mps 761 mmHg 89%
    07:00 +22°C° 0.1 mm 5 mps 762 mmHg 89%
    08:00 +25°C° 0 mm 5 mps 762 mmHg 83%
    09:00 +27°C° 0 mm 5 mps 762 mmHg 77%
    10:00 +28°C° 0 mm 5 mps 763 mmHg 71%
    11:00 +29°C° 0 mm 5 mps 762 mmHg 68%
    12:00 +30°C° 0 mm 5 mps 762 mmHg 65%
    13:00 +30°C° 0 mm 5 mps 761 mmHg 61%
    14:00 +30°C° 0 mm 5 mps 761 mmHg 64%
    15:00 +29°C° 0 mm 5 mps 761 mmHg 66%
    16:00 +29°C° 0 mm 5 mps 760 mmHg 69%
    17:00 +28°C° 0 mm 5 mps 761 mmHg 74%
    18:00 +27°C° 0 mm 5 mps 761 mmHg 80%
    19:00 +25°C° 0 mm 5 mps 762 mmHg 86%
    20:00 +25°C° 0 mm 5 mps 762 mmHg 87%
    21:00 +25°C° 0 mm 5 mps 762 mmHg 88%
    22:00 +25°C° 0 mm 5 mps 763 mmHg 89%
    23:00 +25°C° 0 mm 4 mps 762 mmHg 90%
    Show more